Location: Mountain_View
(35.6670°N, 81.4000°W)
Time: 20:27:44
(UTC-05:00)

LightSail 2 - Visible Passes

Search period start: 24 January 2021 00:00
Search period end: 03 February 2021 00:00
Orbit: 685 x 712 km, 24.0° (Epoch: 24 January)

Date Brightness Start Highest point End Pass type
(mag) Time Alt. Az. Time Alt. Az. Time Alt. Az.
24 Jan 7.5 05:43:57 10° SSW 05:46:26 14° SSE 05:48:55 10° SE visible
25 Jan 7.8 04:44:39 10° SSE 04:44:39 10° SSE 04:45:08 10° SSE visible
25 Jan 7.2 06:25:03 10° SW 06:28:33 19° S 06:32:04 10° SE visible
26 Jan 7.2 05:24:48 15° S 05:26:11 17° S 05:29:21 10° SE visible
27 Jan 7.9 04:26:11 10° SE 04:26:11 10° SE 04:26:22 10° SE visible
27 Jan 7.0 06:04:52 11° SW 06:08:18 21° S 06:12:00 10° SE visible
28 Jan 7.0 05:06:11 19° SSE 05:06:11 19° SSE 05:09:25 10° SE visible
28 Jan 7.0 06:46:48 10° SW 06:50:25 20° S 06:54:04 10° SE visible
29 Jan 6.9 05:46:07 17° SSW 05:48:00 21° S 05:51:44 10° SE visible
30 Jan 7.3 04:47:22 17° SSE 04:47:22 17° SSE 04:49:15 10° SE visible
30 Jan 7.1 06:26:43 10° SW 06:30:05 18° S 06:33:27 10° SE visible
31 Jan 6.8 05:27:14 20° SSW 05:27:39 20° S 05:31:15 10° SE visible
01 Feb 7.8 04:28:25 12° SE 04:28:25 12° SE 04:28:53 10° SE visible
01 Feb 7.2 06:07:05 11° SW 06:09:40 15° SSW 06:12:32 10° SSE visible
02 Feb 7.1 05:08:16 17° S 05:08:16 17° S 05:10:32 10° SSE visible
